Weather History for Paducah, KY

Change the Weather History Date:

Sunday, February 19, 2012

  Actual Average Record
Temperature  
Mean Temperature 39 °F 40 °F  
Max Temperature 48 °F 50 °F 71 °F (1994)
Min Temperature 30 °F 31 °F 1 °F (1978)
Degree Days  
Heating Degree Days 26 25  
Month to date heating degree days 477 515  
Since 1 July heating degree days 2649 3088  
Cooling Degree Days 0 0  
Month to date cooling degree days 0 0  
Year to date cooling degree days 0 0  
Moisture  
Dew Point 25 °F    
Average Humidity 57    
Maximum Humidity 76    
Minimum Humidity 37    
Precipitation  
Precipitation 0.00 in 0.14 in 0.88 in (2002)
Month to date precipitation 1.60 2.66  
Year to date precipitation 5.15 6.34  
Snow  
Snow 0.00 in 0.20 in 1.90 in (2006)
Month to date snowfall 0.3 2.4  
Since 1 July snowfall 0.7 7.7  
Snow Depth 0.00 in    
Sea Level Pressure  
Sea Level Pressure 30.06 in    
Wind  
Wind Speed 10 mph (NNE)    
Max Wind Speed 18 mph    
Max Gust Speed 23 mph    
Visibility 10 miles    
Events      
T = Trace of Precipitation, MM = Missing Value Source: NWS Daily Summary

Daily Weather History Graph

Daily Weather History Graph

Search for Another Location

Airport:

Trip Planner

Search our weather history database for the weather conditions in past years. The results will help you decide how hot, cold, wet, or windy it might be!

Date:

Astronomy

Feb. 19, 2012 Rise Set
Actual Time 6:39 AM CST 5:38 PM CST
Civil Twilight 6:13 AM CST 6:05 PM CST
Nautical Twilight 5:42 AM CST 6:35 PM CST
Astronomical Twilight 5:12 AM CST 7:05 PM CST
Moon 4:58 AM CST (2/19) 3:41 PM CST (2/19)
Length of Visible Light 11h 52m
Length of Day
10h 59m
Waning Crescent, 5% of the Moon is Illuminated
Feb 19
Waning Crescent
Feb 21
New
Feb 29
First Quarter
Mar 8
Full
Mar 14
Last Quarter

Hourly Weather History & Observations

Time (CST) Temp. Windchill Dew Point Humidity Pressure Visibility Wind Dir Wind Speed Gust Speed Precip Events Conditions
12:53 AM 41.0 °F 34.7 °F 30.0 °F 65% 30.02 in 10.0 mi NE 10.4 mph - N/A   Overcast
1:53 AM 39.9 °F 34.5 °F 32.0 °F 73% 30.00 in 10.0 mi NE 8.1 mph - N/A   Overcast
2:53 AM 39.0 °F 32.3 °F 30.0 °F 70% 29.99 in 10.0 mi NNE 10.4 mph - N/A   Overcast
3:53 AM 37.9 °F 30.5 °F 28.9 °F 70% 29.98 in 10.0 mi NNE 11.5 mph - N/A   Overcast
4:53 AM 37.0 °F 30.4 °F 28.9 °F 73% 29.99 in 10.0 mi North 9.2 mph - N/A   Overcast
5:53 AM 37.0 °F 28.9 °F 28.0 °F 70% 29.99 in 10.0 mi North 12.7 mph - N/A   Overcast
6:53 AM 35.1 °F 26.4 °F 27.0 °F 72% 30.01 in 10.0 mi NNE 12.7 mph - N/A   Overcast
7:53 AM 35.1 °F 27.4 °F 26.1 °F 70% 30.03 in 10.0 mi North 10.4 mph - N/A   Overcast
8:53 AM 36.0 °F 26.7 °F 26.1 °F 67% 30.04 in 10.0 mi North 15.0 mph - N/A   Scattered Clouds
9:53 AM 37.9 °F 30.9 °F 27.0 °F 65% 30.05 in 10.0 mi North 10.4 mph - N/A   Overcast
10:53 AM 39.9 °F 31.8 °F 27.0 °F 60% 30.06 in 10.0 mi North 15.0 mph - N/A   Overcast
11:53 AM 42.1 °F 36.1 °F 27.0 °F 55% 30.06 in 10.0 mi North 10.4 mph - N/A   Mostly Cloudy
12:53 PM 46.0 °F 39.9 °F 26.1 °F 46% 30.04 in 10.0 mi North 13.8 mph - N/A   Clear
1:53 PM 46.9 °F - 23.0 °F 39% 30.03 in 10.0 mi North 13.8 mph - N/A   Clear
2:53 PM 46.9 °F - 21.9 °F 37% 30.04 in 10.0 mi NNE 13.8 mph 21.9 mph N/A   Clear
3:53 PM 46.9 °F - 23.0 °F 39% 30.06 in 10.0 mi North 13.8 mph - N/A   Clear
4:53 PM 44.1 °F 38.6 °F 21.9 °F 42% 30.08 in 10.0 mi North 10.4 mph - N/A   Clear
5:53 PM 39.9 °F 34.5 °F 21.0 °F 47% 30.12 in 10.0 mi North 8.1 mph - N/A   Clear
6:53 PM 37.9 °F 31.5 °F 21.9 °F 53% 30.13 in 10.0 mi NNE 9.2 mph - N/A   Clear
7:53 PM 35.6 °F 30.7 °F 21.2 °F 56% 30.14 in 10.0 mi NNE 5.8 mph - N/A   Clear
8:53 PM 32.0 °F 24.8 °F 23.0 °F 69% 30.16 in 10.0 mi NE 8.1 mph - N/A   Clear
9:53 PM 32.0 °F 25.6 °F 23.0 °F 69% 30.15 in 10.0 mi NE 6.9 mph - N/A   Clear
10:53 PM 30.9 °F 25.2 °F 23.0 °F 72% 30.14 in 10.0 mi NE 5.8 mph - N/A   Clear
11:53 PM 30.9 °F - 23.0 °F 72% 30.16 in 10.0 mi Calm Calm - N/A   Clear